Regional Weather Roundup
Issued by NWS

Home | Current Version | Previous Version | Text Only | Print | Product List | Glossary Off
Versions: 1 2 3 4 5 6 7 8 9 10 11 12 13 14 15 16 17 18 19 20 21 22 23 24 25 26 27 28 29 30 31 32 33 34 35 36 37 38 39 40 41 42 43 44 45 46 47 48 49 50

000
ASUS43 KDMX 080406
RWRIA

WEATHER ROUNDUP FOR IOWA
NATIONAL WEATHER SERVICE DES MOINES IA
1000 PM CST WED DEC 07 2016

NOTE: "FAIR" INDICATES FEW OR NO CLOUDS BELOW 12,000 FEET WITH NO
SIGNIFICANT WEATHER AND/OR OBSTRUCTIONS TO VISIBILITY.

* - THESE STATIONS ARE NOT NWS STATIONS...THUS NOT UNDER NWS
QUALITY CONTROL.  THEY ALSO DO NOT REPORT WEATHER SUCH
AS PRECIPITATION OR FOG.

IAZ001>003-012>014-020>022-031>034-043>046-080500-
   NORTHWEST IOWA

CITY           SKY/WX    TMP DP  RH WIND       PRES   REMARKS
CARROLL *      MOCLDY    16   9  73 NW20G26   30.33R WCI  -1
CHEROKEE *     MOCLDY    14   6  69 NW14G28   30.33S WCI  -1
DENISON *      CLOUDY    14   9  79 W8G20     30.35R WCI   3
LE MARS *      CLOUDY    14   7  73 NW17      30.38S WCI  -3
ORANGE CITY *  CLOUDY    12   7  79 NW23G32   30.32R WCI  -7
SHELDON *      CLOUDY    12   5  73 NW30G38   30.30R WCI  -9
SIOUX CITY     CLEAR     16   5  62 NW18G26   30.39R WCI   0
SPENCER        MOCLDY    12   5  73 NW25G31   30.29R WCI  -8
STORM LAKE *   CLOUDY    12   7  79 NW21G30   30.30R WCI  -6
$$

IAZ055>058-069>071-079>083-090>094-080500-
   SOUTHWEST IOWA

CITY           SKY/WX    TMP DP  RH WIND       PRES   REMARKS
ATLANTIC *     PTCLDY    16   7  67 NW13G21   30.39R WCI   2
AUDUBON *      CLEAR     16   9  73 W10G18    30.35R WCI   3
CLARINDA *     CLEAR     19   9  63 NW12      30.44R WCI   7
COUNCIL BLFS * CLEAR     16   7  67 NW13G23   30.42R WCI   2
CRESTON *      CLEAR     16   7  67 NW18      30.37R WCI  -1
HARLAN  *      PTCLDY    16   7  67 NW21G30   30.42R WCI  -2
LAMONI         CLEAR     18   9  68 NW18G25   30.36R WCI   2
RED OAK *      CLEAR     18   7  62 NW15G24   30.43R WCI   3
SHENANDOAH *   CLEAR     19   9  63 NW7       30.45R WCI  10
$$

IAZ047>049-059>061-072>074-084-080500-
   CENTRAL IOWA

CITY           SKY/WX    TMP DP  RH WIND       PRES   REMARKS
AMES           CLEAR     17  10  74 NW22G29   30.31R WCI   0
ANKENY *       PTCLDY    18   9  68 W17G25    30.34R WCI   2
BOONE *        CLOUDY    16   7  67 W16G25    30.29R WCI   0
CHARITON *     CLEAR     18   9  68 NW16G25   30.34R WCI   3
DES MOINES     CLEAR     19   8  62 NW21G26   30.34R WCI   3
GRINNELL*      PTCLDY    18  10  71 W17G24    30.28S WCI   3
KNOXVILLE *    CLEAR     19   7  58 NW16G25   30.32R WCI   5
MARSHALLTOWN   PTCLDY    17  10  74 W16       30.27R WCI   2
NEWTON *       CLEAR     18  10  73 W21G26    30.30R WCI   1
PELLA *        CLEAR     19   9  63 NW15G22   30.33R WCI   5
PERRY *          N/A     17  11  77 W18G26    30.34R WCI   1
$$

IAZ004>006-015-016-023>025-035-036-080500-
   NORTH CENTRAL IOWA

CITY           SKY/WX    TMP DP  RH WIND       PRES   REMARKS
ALGONA *       MOCLDY    12   5  73 NW21G29   30.25R WCI  -6
CLARION *      CLOUDY    16   9  73 NW25G33   30.26R WCI  -3
ESTHERVILLE    CLEAR     10   4  76 NW25G37   30.25S WCI -11
FORT DODGE *   CLOUDY    16   5  62 W14G23    30.30R WCI   1
MASON CITY     PTCLDY    13   4  67 NW21G33   30.23R WCI  -5
FOREST CITY *    N/A     12   7  79 NW22      30.22R WCI  -7
WEBSTER CITY * CLOUDY    16   9  73 NW17G32   30.27R WCI   0
IOWA FALLS *   CLOUDY    18  11  73 W23G30    30.26R WCI   1
$$

IAZ007>011-017>019-026>030-037>042-050>054-066-080500-
   NORTHEAST IOWA

CITY           SKY/WX    TMP DP  RH WIND       PRES   REMARKS
CEDAR RAPIDS   CLEAR     18  13  80 W21       30.23S WCI   1
CHARLES CITY * LGT SNOW  18  12  79 NW22G28   30.20R WCI   0
CLINTON *      CLOUDY    23  16  74 W23       30.21R WCI   7
DECORAH *      CLOUDY    18   9  68 NW15G29   30.14R WCI   3
DUBUQUE        CLOUDY    21  12  68 W21G31    30.16S WCI   5
MONTICELLO *   FLURRIES  21  12  68 W17G25    30.20R WCI   7
OELWEIN *      CLOUDY    19  12  73 W20G26    30.19S WCI   4
WATERLOO       CLOUDY    19  10  68 W18G28    30.22S WCI   4
$$

IAZ064-065-067-068-078-080500-
   EAST CENTRAL IOWA

CITY           SKY/WX    TMP DP  RH WIND       PRES   REMARKS
DAVENPORT      PTCLDY    21  14  74 W17       30.23S WCI   7
IOWA CITY      CLEAR     21  12  68 W16       30.28S WCI   7
MUSCATINE *    CLEAR     21  12  68 W13       30.29S WCI   9
QUAD CITIES    PTCLDY    23  12  62 W18G24    30.25R WCI   9
$$

IAZ062-063-075>077-085>089-095>099-080500-
   SOUTHEAST IOWA

CITY           SKY/WX    TMP DP  RH WIND       PRES   REMARKS
BURLINGTON     CLEAR     22  12  65 W12       30.30R WCI  10
FAIRFIELD *    CLEAR     19  10  68 W12       30.30S WCI   7
FORT MADISON * CLEAR     21  12  68 W10       30.32R WCI  10
KEOKUK *       CLEAR     23  12  63 W12       30.33R WCI  12
OSKALOOSA *      N/A     19  10  68 NW23G30   30.32R WCI   2
CENTERVILLE *    N/A     18  10  73 W14       30.35R WCI   4
OTTUMWA        CLEAR     20   9  62 W13       30.30S WCI   7
WASHINGTON *   CLEAR     19  12  73 W15       30.30S WCI   5
$$

ABBREVIATIONS USED IN REMARKS
   TC - TEMPERATURES IN CELSIUS
  WCI - WIND CHILL INDEX
   HX - HEAT INDEX
  VSB - VISIBILITY
$$





USA.gov is the U.S. government's official web portal to all federal, state and local government web resources and services.